Weather History for KP60 - November, 2012

Change the Weather History Date:

Tuesday, November 27, 2012

  Actual Average Record
Temperature  
Mean Temperature 23 °F 18 °F  
Max Temperature 34 °F 27 °F 43 °F (1998)
Min Temperature 11 °F 8 °F -8 °F (2001)
Degree Days  
Heating Degree Days 42 48  
Month to date heating degree days 1051 1127  
Since 1 July heating degree days 2979 3175  
Cooling Degree Days 0 0  
Month to date cooling degree days 0 0  
Year to date cooling degree days 1 0  
Moisture  
Dew Point 16 °F    
Average Humidity 77    
Maximum Humidity 92    
Minimum Humidity 61    
Precipitation  
Precipitation 0.00 in 0.07 in 0.27 in (2010)
Month to date precipitation 1.61 1.88  
Year to date precipitation 19.88 18.60  
Sea Level Pressure  
Sea Level Pressure 30.38 in    
Wind  
Wind Speed 1 mph (NW)    
Max Wind Speed 7 mph    
Max Gust Speed 14 mph    
T = Trace of Precipitation, MM = Missing Value Source: NWS Daily Summary

Daily Weather History Graph

Daily Weather History Graph

Search for Another Location

Airport or City:

Trip Planner

Search our weather history database for the weather conditions in past years. The results will help you decide how hot, cold, wet, or windy it might be!

Date:

Astronomy

Nov. 27, 2012 Rise Set
Actual Time 7:34 AM MST 4:44 PM MST
Civil Twilight 7:01 AM MST 5:17 PM MST
Nautical Twilight 6:25 AM MST 5:53 PM MST
Astronomical Twilight 5:50 AM MST 6:28 PM MST
Moon 4:18 PM MST (11/27) 6:41 AM MST (11/27)
Length of Visible Light 10h 15m
Length of Day
9h 10m
Waxing Gibbous, 99% of the Moon is Illuminated
Nov 27
Waxing Gibbous
Nov 28
Full
Dec 6
Last Quarter
Dec 13
New
Dec 19
First Quarter

Hourly Weather History & Observations

Time (MST) Temp. Windchill Dew Point Humidity Pressure Visibility Wind Dir Wind Speed Gust Speed Precip Events Conditions
12:56 AM 12.9 °F - 10.9 °F 92% 30.38 in - Calm Calm - N/A   Unknown
1:56 AM 15.1 °F - 12.0 °F 88% 30.37 in - Calm Calm - N/A   Unknown
2:56 AM 16.0 °F - 12.9 °F 88% 30.34 in - Calm Calm - N/A   Unknown
3:56 AM 16.0 °F - 14.0 °F 92% 30.35 in - Calm Calm - N/A   Unknown
4:56 AM 17.1 °F - 14.0 °F 88% 30.35 in - Calm Calm - N/A   Unknown
5:56 AM 18.0 °F - 15.1 °F 88% 30.40 in - Calm Calm - N/A   Unknown
6:56 AM 18.0 °F - 15.1 °F 88% 30.42 in - Calm Calm - N/A   Unknown
7:56 AM 19.0 °F - 16.0 °F 88% 30.43 in - Calm Calm - N/A   Unknown
8:56 AM 21.9 °F - 19.0 °F 89% 30.45 in - Calm Calm - N/A   Unknown
9:56 AM 27.0 °F - 21.0 °F 78% 30.40 in - Calm Calm - N/A   Unknown
10:56 AM 28.9 °F 23.9 °F 21.0 °F 72% 30.41 in - Variable 4.6 mph - N/A   Unknown
11:56 AM 30.0 °F - 21.0 °F 69% 30.36 in - Calm Calm - N/A   Unknown
12:56 PM 32.0 °F 28.7 °F 21.9 °F 66% 30.33 in - Variable 3.5 mph - N/A   Unknown
1:56 PM 33.1 °F 27.7 °F 21.0 °F 61% 30.31 in - Variable 5.8 mph - N/A   Unknown
2:56 PM 30.9 °F 26.2 °F 21.0 °F 67% 30.32 in - Variable 4.6 mph - N/A   Unknown
3:56 PM 30.0 °F - 21.0 °F 69% 30.35 in - Calm Calm - N/A   Unknown
4:56 PM 27.0 °F - 19.9 °F 75% 30.36 in - Calm Calm - N/A   Unknown
5:56 PM 21.9 °F - 18.0 °F 85% 30.38 in - Calm Calm - N/A   Unknown
6:56 PM 19.9 °F 14.9 °F 16.0 °F 85% 30.39 in - NW 3.5 mph - N/A   Unknown
7:56 PM 17.1 °F - 14.0 °F 88% 30.40 in - Calm Calm - N/A   Unknown
8:56 PM 15.1 °F - 12.0 °F 88% 30.39 in - Calm Calm - N/A   Unknown
9:56 PM 12.9 °F 6.9 °F 10.0 °F 88% 30.39 in - NW 3.5 mph - N/A   Unknown
10:56 PM 12.9 °F 6.9 °F 10.0 °F 88% 30.38 in - NW 3.5 mph - N/A   Unknown
11:56 PM 10.9 °F 4.7 °F 8.1 °F 88% 30.38 in - NW 3.5 mph - N/A   Unknown